Date String (YYYY-MM-DD hh:mm:ss) UTC,Instrument flags,Ambient pressure (hPa),Sample flow (lpm),Bypass flow (lpm),Sample temperature (°C),Ambient temperature (°C),ASC tube jacket temperature (°C),LED temperature (°C),Box temperature (°C),Sample RH (%),Span deviation,Mass concentration (μg/m³),Mass concentration (μg/m³),Mass concentration (μg/m³)
DateTimeUTC,F1_M11,P_M11,Q1_M11,Q2_M11,T1_M11,T2_M11,T3_M11,T4_M11,T5_M11,U1_M11,ZSPAN_M11,X0_M11,X2_M11,X1_M11
2021-08-21 09:00:00,,0830.5,5.01,0.00,30.2,29.2,00.0,39.4,32.0,20.9,0002.5,0017.75,0011.95,0011.56
2021-08-21 09:01:00,,0830.5,5.00,0.00,30.3,29.3,00.0,39.4,32.0,21.2,0002.6,0017.98,0012.11,0011.68
2021-08-21 09:02:00,,0830.4,5.00,0.00,30.3,29.3,00.0,39.4,32.0,21.1,0002.5,0018.05,0012.28,0011.85
2021-08-21 09:03:00,,0830.5,5.00,0.00,30.3,29.3,00.0,39.4,32.0,20.6,0002.2,0017.94,0012.44,0011.98
2021-08-21 09:04:00,,0830.5,5.00,0.00,30.3,29.3,00.0,39.4,32.1,20.3,0002.3,0017.98,0012.46,0011.99
2021-08-21 09:05:00,,0830.5,5.01,0.00,30.3,29.3,00.0,39.4,32.0,20.3,0002.2,0018.08,0012.43,0011.96
2021-08-21 09:06:00,,0830.5,4.99,0.00,30.3,29.3,00.0,39.4,32.0,20.2,0002.4,0017.44,0012.40,0011.94
2021-08-21 09:07:00,,0830.5,5.01,0.00,30.3,29.3,00.0,39.4,32.0,20.2,0002.4,0017.21,0012.29,0011.87
2021-08-21 09:08:00,,0830.5,5.00,0.00,30.3,29.3,00.0,39.4,32.1,20.2,0002.3,0016.39,0012.16,0011.76
2021-08-21 09:09:00,,0830.4,5.00,0.00,30.3,29.4,00.0,39.4,32.1,20.2,0002.4,0016.46,0012.18,0011.75
2021-08-21 09:10:00,,0830.4,5.01,0.00,30.3,29.4,00.0,39.5,32.1,20.1,0002.4,0016.47,0012.14,0011.68
2021-08-21 09:11:00,,0830.4,4.99,0.00,30.3,29.4,00.0,39.5,32.1,20.2,0002.5,0016.24,0011.99,0011.55
2021-08-21 09:12:00,,0830.5,5.01,0.00,30.3,29.4,00.0,39.5,32.1,20.1,0002.6,0015.91,0011.76,0011.38
2021-08-21 09:13:00,,0830.4,5.00,0.00,30.3,29.4,00.0,39.5,32.1,20.1,0002.8,0015.60,0011.51,0011.14
2021-08-21 09:14:00,,0830.4,5.00,0.00,30.3,29.4,00.0,39.5,32.1,20.1,0003.0,0015.22,0011.28,0010.95
2021-08-21 09:15:00,,0830.4,4.99,0.00,30.3,29.4,00.0,39.5,32.1,20.1,0002.7,0015.06,0011.13,0010.82
2021-08-21 09:16:00,,0830.4,5.01,0.00,30.4,29.4,00.0,39.5,32.1,20.0,0002.7,0014.49,0011.03,0010.72
2021-08-21 09:17:00,,0830.4,5.02,0.00,30.4,29.4,00.0,39.5,32.1,20.0,0002.6,0014.34,0010.93,0010.62
2021-08-21 09:18:00,,0830.4,5.00,0.00,30.4,29.4,00.0,39.5,32.1,19.9,0002.7,0014.28,0010.87,0010.56
2021-08-21 09:19:00,,0830.5,5.00,0.00,30.4,29.5,00.0,39.5,32.1,19.9,0002.8,0014.11,0010.74,0010.43
2021-08-21 09:20:00,,0830.4,5.00,0.00,30.4,29.5,00.0,39.5,32.1,19.9,0002.6,0013.81,0010.55,0010.27
2021-08-21 09:21:00,,0830.5,4.99,0.00,30.4,29.5,00.0,39.5,32.1,19.9,0002.4,0013.75,0010.46,0010.18
2021-08-21 09:22:00,,0830.4,5.00,0.00,30.4,29.5,00.0,39.5,32.1,20.0,0002.4,0013.79,0010.42,0010.12
2021-08-21 09:23:00,,0830.4,5.00,0.00,30.4,29.5,00.0,39.5,32.1,19.9,0002.3,0013.71,0010.32,0010.01
2021-08-21 09:24:00,,0830.4,5.01,0.00,30.4,29.4,00.0,39.6,32.1,19.9,0002.2,0013.74,0010.29,0009.97
2021-08-21 09:25:00,,0830.4,4.99,0.00,30.4,29.5,00.0,39.6,32.1,20.1,0002.3,0013.86,0010.34,0010.00
2021-08-21 09:26:00,,0830.4,5.00,0.00,30.4,29.5,00.0,39.6,32.1,20.0,0002.6,0013.95,0010.40,0010.05
2021-08-21 09:27:00,,0830.4,5.01,0.00,30.4,29.5,00.0,39.6,32.1,20.2,0002.7,0014.01,0010.50,0010.14
2021-08-21 09:28:00,,0830.3,5.00,0.00,30.4,29.5,00.0,39.6,32.1,20.2,0002.7,0014.11,0010.61,0010.27
2021-08-21 09:29:00,,0830.5,5.01,0.00,30.4,29.5,00.0,39.6,32.1,20.3,0002.4,0014.23,0010.72,0010.39
2021-08-21 09:30:00,,0830.4,4.99,0.00,30.4,29.5,00.0,39.6,32.2,20.1,0002.2,0014.50,0010.89,0010.55
2021-08-21 09:31:00,,0830.4,5.01,0.00,30.4,29.5,00.0,39.6,32.2,20.3,0002.3,0014.72,0011.06,0010.69
2021-08-21 09:32:00,,0830.4,4.98,0.00,30.4,28.6,00.0,39.6,31.9,20.7,0002.3,0014.97,0011.26,0010.89
2021-08-21 09:33:00,,0830.4,5.00,0.00,30.2,26.6,00.0,39.5,31.4,20.9,0002.3,0015.22,0011.44,0011.06
2021-08-21 09:34:00,,0830.4,5.00,0.00,30.1,26.3,00.0,39.5,31.3,21.2,0002.5,0015.58,0011.70,0011.31
2021-08-21 09:35:00,,0830.4,5.01,0.00,30.0,26.6,00.0,39.4,31.3,21.3,0002.5,0015.99,0011.93,0011.52
2021-08-21 09:36:00,,0830.4,5.00,0.00,29.9,27.0,00.0,39.3,31.3,21.0,0002.4,0017.29,0012.01,0011.61
2021-08-21 09:37:00,,0830.4,5.00,0.00,29.9,27.4,00.0,39.3,31.4,20.9,0002.2,0017.21,0012.03,0011.65
2021-08-21 09:38:00,,0830.4,4.99,0.00,29.9,27.7,00.0,39.3,31.4,20.9,0002.2,0017.88,0012.05,0011.67
2021-08-21 09:39:00,,0830.4,5.01,0.00,29.9,27.9,00.0,39.2,31.5,20.9,0002.3,0018.65,0012.08,0011.66
2021-08-21 09:40:00,,0830.4,5.00,0.00,29.9,28.1,00.0,39.2,31.5,21.0,0002.5,0018.64,0012.07,0011.67
2021-08-21 09:41:00,,0830.4,5.01,0.00,29.9,28.3,00.0,39.2,31.6,21.0,0002.6,0018.60,0012.08,0011.67
2021-08-21 09:42:00,,0830.4,5.00,0.00,29.9,28.4,00.0,39.2,31.6,21.0,0002.7,0018.62,0012.11,0011.70
2021-08-21 09:43:00,,0830.4,4.98,0.00,29.9,28.5,00.0,39.2,31.6,21.0,0002.7,0018.54,0012.07,0011.66
2021-08-21 09:44:00,,0830.4,5.01,0.00,29.9,28.6,00.0,39.2,31.7,21.1,0002.7,0018.36,0012.01,0011.60
2021-08-21 09:45:00,,0830.4,5.01,0.00,29.9,28.6,00.0,39.2,31.7,21.1,0002.7,0018.20,0011.96,0011.57
2021-08-21 09:46:00,,0830.4,4.98,0.00,30.0,28.7,00.0,39.2,31.7,21.1,0002.9,0018.33,0011.89,0011.49
2021-08-21 09:47:00,,0830.4,5.00,0.00,30.0,28.7,00.0,39.2,31.7,20.9,0002.8,0017.10,0011.83,0011.43
2021-08-21 09:48:00,,0830.4,5.00,0.00,30.0,28.8,00.0,39.1,31.7,21.6,0002.9,0017.18,0011.89,0011.47
2021-08-21 09:49:00,,0830.4,5.01,0.00,30.0,28.8,00.0,39.2,31.8,21.9,0002.9,0017.03,0012.03,0011.61
2021-08-21 09:50:00,,0830.4,5.00,0.00,30.0,28.9,00.0,39.2,31.8,21.3,0002.8,0016.03,0012.09,0011.70
2021-08-21 09:51:00,,0830.4,4.99,0.00,30.0,28.9,00.0,39.2,31.8,21.2,0002.7,0016.09,0012.14,0011.74
2021-08-21 09:52:00,,0830.5,5.00,0.00,30.0,29.0,00.0,39.2,31.8,21.0,0002.7,0016.18,0012.14,0011.74
2021-08-21 09:53:00,,0830.5,5.00,0.00,30.1,29.0,00.0,39.2,31.8,21.1,0002.6,0016.35,0012.16,0011.75
2021-08-21 09:54:00,,0830.5,4.99,0.00,30.1,29.0,00.0,39.2,31.9,21.2,0002.4,0016.36,0012.16,0011.78
2021-08-21 09:55:00,,0830.5,5.01,0.00,30.1,29.0,00.0,39.2,31.9,20.8,0002.4,0016.31,0012.09,0011.72
2021-08-21 09:56:00,,0830.5,5.00,0.00,30.1,29.1,00.0,39.2,31.9,20.7,0002.5,0016.27,0012.03,0011.66
2021-08-21 09:57:00,,0830.5,5.00,0.00,30.1,29.1,00.0,39.2,31.9,20.6,0002.2,0015.91,0011.91,0011.54
2021-08-21 09:58:00,,0830.5,5.00,0.00,30.1,29.1,00.0,39.2,31.9,20.5,0002.2,0015.54,0011.76,0011.39
2021-08-21 09:59:00,,0830.5,4.99,0.00,30.1,29.1,00.0,39.2,31.9,20.7,0002.2,0015.33,0011.62,0011.27
